Regional Weather Roundup
Issued by NWS

Home | Current Version | Previous Version | Text Only | Print | Product List | Glossary On
Versions: 1 2 3 4 5 6 7 8 9 10 11 12 13 14 15 16 17 18 19 20 21 22 23 24 25 26 27 28 29 30 31 32 33 34 35 36 37 38 39 40 41 42 43 44 45 46 47 48 49 50
000
ASUS44 KLIX 201910
RWRLA
LOUISIANA WEATHER ROUNDUP
NATIONAL WEATHER SERVICE NEW ORLEANS LA
200 PM CDT SAT SEP 20 2014

NOTE: "FAIR" INDICATES FEW OR NO CLOUDS BELOW 12,000 FEET WITH NO
      SIGNIFICANT WEATHER AND/OR OBSTRUCTIONS TO VISIBILITY.
      SKY/WX - SKY CONDITION AND SIGNIFICANT WEATHER.
      TMP - AIR TEMPERATURE.    DP   - DEWPOINT TEMPERATURE.
      RH  - RELATIVE HUMIDITY.  PRES - PRESSURE.
      HX  - HEAT INDEX.         WCI  - WIND CHILL INDEX.

*  THESE STATIONS ARE NOT NWS OR FAA STATIONS AND ARE NOT UNDER
   NWS QUALITY CONTROL.

LAZ040-048-061>063-065-066-069-202000-
SOUTHEAST LOUISIANA

CITY           SKY/WX    TMP DP  RH WIND       PRES   REMARKS
N.O. AUDUBON     N/A     87  70  56 MISG        N/A
N.O. INTL ARPT MOSUNNY   88  66  48 E10G20    29.96F
N.O. LAKEFRONT SUNNY     86  70  58 E15       29.97F
N.O. DOWNTOWN* FAIR      84  68  58 NE5G17    29.97F
SLIDELL        MOSUNNY   88  67  49 NE6       29.96F
BATON ROUGE    MOSUNNY   88  68  51 NE9       29.98F
BOOTHVILLE     MOSUNNY   85  73  67 NE15G23   29.95F
BELLE CHASSE   MOSUNNY   86  68  54 E13       29.96F
BOGALUSA*        N/A     88  67  48 NE6       29.99F
GALLIANO*      NOT AVBL
NEW ROADS*     FAIR      88  67  49 MISG      29.98F
GONZALES*      FAIR      87  67  52 E6G16     29.96F
HAMMOND*       MOSUNNY   88  64  45 E6        29.99F
HOUMA*         PTSUNNY   86  54  32 E14       29.95F
PORT FOURCHON* PTCLDY    84  73  70 E17G25    29.97S

$$

LAZ041-044-053-054-202000-
SOUTHWEST LOUISIANA

CITY           SKY/WX    TMP DP  RH WIND       PRES   REMARKS
LAKE CHARLES   MOSUNNY   87  71  58 E10       29.95F
LAFAYETTE      MOSUNNY   87  68  52 NE12G20   29.96F
PATTERSON      MOSUNNY   88  73  62 E10G16    29.97  HX  96
SALT POINT       N/A     88  72  58 VRB7      29.93F
NEW IBERIA     MOSUNNY   88  71  57 E13       29.96F
CHENAULT AIRPK MOSUNNY   88  72  58 E9        29.97F

$$

LAZ027-028-202000-
CENTRAL LOUISIANA

CITY           SKY/WX    TMP DP  RH WIND       PRES   REMARKS
FORT POLK      MOSUNNY   87  66  49 SE10      29.98F
ALEXANDRIA INT MOSUNNY   89  69  51 NE10      29.97F
ALEXANDRIA     MOSUNNY   90  69  50 SE7       29.99F

$$

LAZ001-002-202000-
NORTHWEST LOUISIANA

CITY           SKY/WX    TMP DP  RH WIND       PRES   REMARKS
SHREVEPORT     MOSUNNY   91  64  40 E8        29.99F
BARKSDALE AFB  MOSUNNY   91  65  41 E5        30.00F
DTN SHREVEPORT MOSUNNY   90  66  45 S6        30.00F

$$

LAZ014-016-202000-
NORTHEAST LOUISIANA

CITY           SKY/WX    TMP DP  RH WIND       PRES   REMARKS
MONROE         SUNNY     92  68  45 E6        30.00F HX  96
TALLULAH       SUNNY     89  67  47 E8        30.00F

$$



USA.gov is the U.S. government's official web portal to all federal, state and local government web resources and services.